Airfield :
LOGIN :

Register | Disclaimer

   EN    FR    IT 

 










Legend :    VFR   Marginal VFR   IFR   Intensive IFR   Very Intensive IFR
Visi :
Ceiling :
>= 8 km
>= 3000ft
5 to 8 km
1000 to 3000 ft
1500m to 5 km
500 to 1000 ft
800 to 1500m
200 to 500 ft
< 800m
< 200 ft
Symbols :   Thunderstorms  Fog  Heavy snow  Heavy precipitations  Wind > 20 kt
SIGMETs :     Misc.  Thunderstorms  Icing  Turbulence  Mountain Waves  Volcanic Ashes







- Airport Elevation : 574 ft
- IATA code : NDR


GMMW - Nador El Aroui

CURRENT METAR :
  • 202300Z 26006KT 9999 BKN020 19/14 Q1015 NOSIG

EXPIRED METARs :
  • 202200Z 26004KT 9999 BKN020 18/14 Q1015 NOSIG
  • 202100Z 25004KT 9999 BKN020 SCT200 18/14 Q1015 NOSIG

TAF TAF GMMW
Valid from the 21 at 00:00 until the 22 at 06:00 UTC


202300Z 2100/2206 28005KT 9999 BKN016
PROB30 2100/2107 4000 BR BKN008
No reported NOTAMs for that airfield.
1 SIGMET reported for the Casablanca FIR (GMMM) :
 
GMMM SIGMET 05 VALID 210245/210645 GMMC
GMMM CASABLANCA FIR EMBD FCST N OF LINE N3508 W00349 - N3533 W00618 TOP FL330 STNR NC=



MET'MAP, your aeronautical weather chart ! - Copyright ORBIFLY December 2007 - Disclaimer

ORBIFLY MET'MAP TEAM :

Programming & Development : Alexandra Zaïnal
Concept & Development : Baudouin d'Aumeries
Co-Development & Prog : Marc-Olivier Méhu
Technical & hardware support : Manuel Goepfert

Contact : metmap@orbifly.com




SOURCES & CREDITS :

   NOAA